Terug naar catalogus

FENGYUN 3B

ActiefWeerSSO
NORAD 37214·PAYLOAD·🇨🇳 China

Gelanceerd Nov 4, 2010 vanaf Taiyuan Satellite Launch Center

Loading…

Volgende Passages (komende 24 uur)

TLE

VersSource: Space-Track

Epoch: Sep 14, 2026, 22:14 UTC

1 37214U 10059A   26257.92700454  .00000188  00000-0  12070-3 0  9995
2 37214  98.9536 304.2859 0021141 293.6837 245.6591 14.14857919820110

Volg FENGYUN 3B in realtime met AllMySat

Download on the App Store